Weather History for Winchester, TN

Change the Weather History Date:

Thursday, December 13, 2012

  Actual Average (KTHA) Record (KTHA)
Temperature  
Mean Temperature 36 °F -  
Max Temperature 53 °F 52 °F 55 °F (2012)
Min Temperature 19 °F 34 °F 17 °F (2013)
Degree Days  
Heating Degree Days 29    
Moisture  
Dew Point 25 °F    
Average Humidity 76    
Maximum Humidity 100    
Minimum Humidity 28    
Precipitation  
Precipitation 0.00 in - - ()
Sea Level Pressure  
Sea Level Pressure 30.33 in    
Wind  
Wind Speed 1 mph (WNW)    
Max Wind Speed 5 mph    
Max Gust Speed -    
Visibility 10 miles    
Events      
Averages and records for this station are not official NWS values.
T = Trace of Precipitation, MM = Missing Value Source: NWS Daily Summary

Daily Weather History Graph

Daily Weather History Graph

Search for Another Location

Airport:

Trip Planner

Search our weather history database for the weather conditions in past years. The results will help you decide how hot, cold, wet, or windy it might be!

Date:

Astronomy

Dec. 13, 2012 Rise Set
Actual Time 7:44 AM EST 5:33 PM EST
Civil Twilight 7:16 AM EST 6:01 PM EST
Nautical Twilight 6:44 AM EST 6:33 PM EST
Astronomical Twilight 6:13 AM EST 7:03 PM EST
Moon 7:52 AM EST (12/13) 6:13 PM EST (12/13)
Length of Visible Light 10h 45m
Length of Day
9h 48m
New Moon, 0% of the Moon is Illuminated
Dec 13
New Moon
Dec 20
First Quarter
Dec 28
Full
Jan 4
Last Quarter
Jan 11
New

Hourly Weather History & Observations

Time (EST) Temp. Windchill Dew Point Humidity Pressure Visibility Wind Dir Wind Speed Gust Speed Precip Events Conditions
12:15 AM 26.6 °F 21.2 °F 24.8 °F 93% 30.30 in 10.0 mi West 4.6 mph - N/A   Clear
12:35 AM 26.6 °F 22.6 °F 24.8 °F 93% 30.31 in 10.0 mi WNW 3.5 mph - N/A   Clear
12:55 AM 26.6 °F - 23.0 °F 86% 30.30 in 10.0 mi Calm Calm - N/A   Clear
1:35 AM 24.8 °F 19.1 °F 24.8 °F 100% 30.31 in 10.0 mi South 4.6 mph - N/A   Clear
1:55 AM 24.8 °F - 23.0 °F 93% 30.31 in 10.0 mi Calm Calm - N/A   Clear
2:15 AM 24.8 °F 20.5 °F 23.0 °F 93% 30.31 in 10.0 mi ESE 3.5 mph - N/A   Clear
2:35 AM 24.8 °F - 23.0 °F 93% 30.31 in 10.0 mi Calm Calm - N/A   Clear
2:55 AM 26.6 °F - 24.8 °F 93% 30.31 in 10.0 mi Calm Calm - N/A   Clear
3:15 AM 24.8 °F - 24.8 °F 100% 30.31 in 10.0 mi Calm Calm - N/A   Clear
3:35 AM 24.8 °F - 23.0 °F 93% 30.31 in 10.0 mi Calm Calm - N/A   Clear
3:55 AM 24.8 °F - 23.0 °F 93% 30.32 in 10.0 mi Calm Calm - N/A   Clear
4:15 AM 24.8 °F - 23.0 °F 93% 30.32 in 10.0 mi Calm Calm - N/A   Clear
4:35 AM 23.0 °F - 21.2 °F 93% 30.31 in 10.0 mi Calm Calm - N/A   Clear
4:55 AM 24.8 °F - 21.2 °F 86% 30.32 in 10.0 mi Calm Calm - N/A   Clear
5:15 AM 21.2 °F - 21.2 °F 100% 30.32 in 10.0 mi Calm Calm - N/A   Clear
5:35 AM 23.0 °F - 21.2 °F 93% 30.33 in 10.0 mi Calm Calm - N/A   Clear
5:55 AM 21.2 °F - 21.2 °F 100% 30.34 in 10.0 mi Calm Calm - N/A   Clear
6:15 AM 19.4 °F - 19.4 °F 100% 30.34 in 10.0 mi Calm Calm - N/A   Clear
6:35 AM 21.2 °F - 21.2 °F 100% 30.35 in 10.0 mi Calm Calm - N/A   Clear
6:55 AM 23.0 °F - 21.2 °F 93% 30.35 in 10.0 mi Calm Calm - N/A   Clear
7:15 AM 21.2 °F - 19.4 °F 93% 30.36 in 10.0 mi Calm Calm - N/A   Clear
7:35 AM 21.2 °F - 21.2 °F 100% 30.37 in 10.0 mi Calm Calm - N/A   Clear
7:55 AM 21.2 °F - 19.4 °F 93% 30.37 in 10.0 mi Calm Calm - N/A   Clear
8:15 AM 21.2 °F - 19.4 °F 93% 30.36 in 10.0 mi Calm Calm - N/A   Clear
8:35 AM 24.8 °F - 23.0 °F 93% 30.36 in 10.0 mi Calm Calm - N/A   Clear
8:55 AM 26.6 °F - 24.8 °F 93% 30.36 in 10.0 mi Calm Calm - N/A   Clear
9:15 AM 28.4 °F - 24.8 °F 86% 30.37 in 10.0 mi Calm Calm - N/A   Clear
9:35 AM 30.2 °F - 26.6 °F 86% 30.37 in 10.0 mi Calm Calm - N/A   Clear
9:55 AM 33.8 °F - 26.6 °F 75% 30.38 in 10.0 mi Calm Calm - N/A   Clear
10:15 AM 35.6 °F - 28.4 °F 75% 30.38 in 10.0 mi Calm Calm - N/A   Clear
10:35 AM 37.4 °F - 28.4 °F 70% 30.39 in 10.0 mi Calm Calm - N/A   Clear
10:55 AM 39.2 °F 37.0 °F 30.2 °F 70% 30.39 in 10.0 mi NW 3.5 mph - N/A   Clear
11:15 AM 42.8 °F - 30.2 °F 61% 30.38 in 10.0 mi Calm Calm - N/A   Clear
11:35 AM 44.6 °F - 30.2 °F 57% 30.38 in 10.0 mi Calm Calm - N/A   Clear
11:55 AM 46.4 °F 45.2 °F 30.2 °F 53% 30.38 in 10.0 mi NW 3.5 mph - N/A   Clear
12:15 PM 46.4 °F 45.2 °F 30.2 °F 53% 30.37 in 10.0 mi West 3.5 mph - N/A   Clear
12:35 PM 48.2 °F - 30.2 °F 50% 30.36 in 10.0 mi Calm Calm - N/A   Clear
12:55 PM 48.2 °F - 30.2 °F 50% 30.35 in 10.0 mi Variable 3.5 mph - N/A   Clear
1:15 PM 50.0 °F - 30.2 °F 47% 30.34 in 10.0 mi Calm Calm - N/A   Clear
1:35 PM 50.0 °F - 28.4 °F 43% 30.33 in 10.0 mi Calm Calm - N/A   Clear
1:55 PM 51.8 °F - 28.4 °F 41% 30.32 in 10.0 mi Calm Calm - N/A   Clear
2:15 PM 51.8 °F - 26.6 °F 38% 30.32 in 10.0 mi West 3.5 mph - N/A   Clear
2:35 PM 53.6 °F - 26.6 °F 35% 30.31 in 10.0 mi Variable 3.5 mph - N/A   Clear
2:55 PM 53.6 °F - 24.8 °F 33% 30.31 in 10.0 mi WNW 3.5 mph - N/A   Clear
3:15 PM 53.6 °F - 24.8 °F 33% 30.31 in 10.0 mi North 3.5 mph - N/A   Clear
3:35 PM 53.6 °F - 24.8 °F 33% 30.31 in 10.0 mi Calm Calm - N/A   Clear
3:55 PM 53.6 °F - 24.8 °F 33% 30.30 in 10.0 mi Calm Calm - N/A   Clear
4:15 PM 53.6 °F - 21.2 °F 28% 30.29 in 10.0 mi Calm Calm - N/A   Clear
4:35 PM 53.6 °F - 23.0 °F 30% 30.29 in 10.0 mi Calm Calm - N/A   Clear
4:55 PM 53.6 °F - 21.2 °F 28% 30.29 in 10.0 mi Calm Calm - N/A   Clear
5:15 PM 51.8 °F - 23.0 °F 33% 30.29 in 10.0 mi Calm Calm - N/A   Clear
5:35 PM 46.4 °F - 24.8 °F 43% 30.28 in 10.0 mi Calm Calm - N/A   Clear
7:15 PM 35.6 °F - 28.4 °F 75% 30.29 in 10.0 mi Calm Calm - N/A   Clear
8:15 PM 33.8 °F - 28.4 °F 81% 30.31 in 10.0 mi Calm Calm - N/A   Clear
8:35 PM 30.2 °F - 28.4 °F 93% 30.31 in 10.0 mi Calm Calm - N/A   Clear
8:55 PM 30.2 °F - 28.4 °F 93% 30.31 in 10.0 mi Calm Calm - N/A   Clear
9:15 PM 32.0 °F - 28.4 °F 87% 30.31 in 10.0 mi Calm Calm - N/A   Clear
9:35 PM 30.2 °F - 26.6 °F 86% 30.32 in 10.0 mi Calm Calm - N/A   Clear
9:55 PM 28.4 °F - 26.6 °F 93% 30.32 in 10.0 mi Calm Calm - N/A   Clear
10:15 PM 28.4 °F - 26.6 °F 93% 30.32 in 10.0 mi Calm Calm - N/A   Clear
10:35 PM 28.4 °F - 26.6 °F 93% 30.31 in 10.0 mi Calm Calm - N/A   Clear
10:55 PM 28.4 °F - 26.6 °F 93% 30.32 in 10.0 mi Calm Calm - N/A   Clear
11:15 PM 28.4 °F - 26.6 °F 93% 30.32 in 10.0 mi Calm Calm - N/A   Clear
11:35 PM 26.6 °F - 26.6 °F 100% 30.32 in 10.0 mi Calm Calm - N/A   Clear
11:55 PM 28.4 °F - 26.6 °F 93% 30.31 in 10.0 mi Calm Calm - N/A   Clear